If you wish to contribute or participate in the discussions about articles you are invited to join SKYbrary as a registered user

 Actions

Ambler Airport

From SKYbrary Wiki

PAFM
Airport
ICAO: PAFM – IATA: ABL
Summary
Name Ambler Airport
Region North America
Territory Alaska US.gif
Location Ambler, Alaska
Serving Ambler
Elevation 101.803 m
334 ft
334 ft101.803 m
Type medium airport
Coordinates 67° 6' 23.00" N, 157° 51' 27.00" W
Runways
Designator Length Width Surface ROPS
9/27 732 m2,401.575 ft
18 m59.055 ft
GVL /
18/36 914 m2,998.688 ft
18 m59.055 ft
GVL /


METAR
Observation PAFM 160456Z AUTO 04004KT 10SM CLR M16/M19 A3013 RMK AO2 SLP220 T11611189 FZRANO
Station Ambler, Ambler Airport
Date/Time 16 February 2019 04:56:00
Wind direction 40°
Wind speed 04 kts
Lowest cloud amount n/a
Temperature
Dew point
Humidity 78%
QNH hPa
Weather condition n/a

Maps

Terrain

Loading map...

Airport Layout

Loading map...


Accidents & Serious Incidents at or in vicinity of PAFM

None on SKYbrary